Regional Weather Roundup
Issued by NWS

Home | Current Version | Previous Version | Text Only | Print | Product List | Glossary Off
Versions: 1 2 3 4 5 6 7 8 9 10 11 12 13 14 15 16 17 18 19 20 21 22 23 24 25 26 27 28 29 30 31 32 33 34 35 36 37 38 39 40 41 42 43 44 45 46 47 48 49 50

000
ASUS43 KMPX 062101
RWRMN
WEATHER ROUNDUP FOR MINNESOTA
NATIONAL WEATHER SERVICE TWIN CITIES/CHANHASSEN MN
400 PM CDT WED MAY 06 2015


NOTE: "FAIR" INDICATES FEW OR NO CLOUDS BELOW 12,000 FEET WITH NO
SIGNIFICANT WEATHER AND/OR OBSTRUCTIONS TO VISIBILITY. N/A MEANS
CURRENT SKY AND/OR WEATHER CONDITIONS ARE NOT AVAILABLE.

MNZ060>063-068>070-062200-
   Twin Cities Metro

CITY           SKY/WX    TMP DP  RH WIND       PRES   REMARKS
TWIN CITIES    PTSUNNY   76  58  53 SE20      29.88F
ST PAUL        PTSUNNY   74  56  53 SE15G25   29.90F
CRYSTAL        PTSUNNY   75  54  47 SE17G25   29.87F
BLAINE         PTSUNNY   72  61  68 E16G25    29.89F
LAKEVILLE      MOSUNNY   75  57  53 SE13G31   29.88F
EDEN PRAIRIE   PTSUNNY   76  58  53 SE22G28   29.85F
SOUTH ST PAUL  PTSUNNY   75  55  50 SE15G24   29.90F
LAKE ELMO      FAIR      75  61  60 E15       29.91F
$$
MNZ001>005-007-008-013>017-022>024-027-028-062200-
   Northwest Minnesota

CITY           SKY/WX    TMP DP  RH WIND       PRES   REMARKS
BEMIDJI        CLOUDY    62  55  76 SE10      29.90F
HALLOCK        CLOUDY    68  59  73 SE21      29.81F
ROSEAU         LGT RAIN  66  57  72 SE13      29.87S
WARROAD        CLOUDY    66  57  72 SE10      29.89S
THIEF RVR FALL CLOUDY    63  59  88 SE12      29.86F
CROOKSTON      LGT RAIN  63  61  94 SE14      29.83F
FOSSTON        DRIZZLE   63  57  82 E9        29.86F
DETROIT LAKES  CLOUDY    64  55  72 SE15      29.81F
MOORHEAD       CLOUDY    64  61  88 E12G17    29.77F
PARK RAPIDS    CLOUDY    66  54  65 E14       29.86F
MAHNOMEN       FAIR      63  56  78 SE13      29.85F
$$
MNZ006-009>011-018-025>026-062200-
   North Central Minnesota

CITY           SKY/WX    TMP DP  RH WIND       PRES   REMARKS
BAUDETTE       LGT RAIN  65  56  72 SE9       29.92S
FLAG ISLAND    HVY RAIN  55  54  94 CALM      29.89F
INTL FALLS     CLOUDY    67  55  65 SE10G20   29.94F
WASKISH        LGT RAIN  64  57  77 CALM      29.91F
BIG FORK       CLOUDY    66  52  59 E9        29.95F
LONGVILLE      CLOUDY    70  55  60 E9        29.91F
GRAND RAPIDS   CLOUDY    64  50  59 SE12G20   29.96F
CRANE LAKE     CLOUDY    66  54  63 SE3       29.99F
ORR            CLOUDY    64  52  63 SE9       29.95F
COOK           CLOUDY    64  55  72 SE7       29.99F
WALKER         FAIR      64  54  71 E5        29.91F
$$
MNZ012-019>021-037-062200-
   Northeast Minnesota

CITY           SKY/WX    TMP DP  RH WIND       PRES   REMARKS
DULUTH         CLOUDY    61  50  67 E14       30.01F
ELY            CLOUDY    66  52  59 SE12      30.01F
HIBBING        CLOUDY    62  50  64 SE14      29.99F
EVELETH        LGT RAIN  59  52  77 SE9       30.01F
DULUTH HARBOR  CLOUDY    45  37  76 E12       30.04F
TWO HARBORS    CLOUDY    59  48  67 E13G18    30.02F
SILVER BAY     CLOUDY    57  37  47 NE13      30.04F
GRAND MARAIS     N/A     50  30  46 NE6       30.09F
G MARAIS ARPRT PTSUNNY   57  46  67 SE7       30.10F
$$
MNZ029>031-032-039>041-046>048-054>057-064-062200-
   West Central Minnesota

CITY           SKY/WX    TMP DP  RH WIND       PRES   REMARKS
FERGUS FALLS   CLOUDY    66  57  72 E13G20    29.77F
WHEATON        HVY RAIN  63  59  88 SE22G28   29.77S
MORRIS         LGT RAIN  66  61  82 SE15      29.75S
ALEXANDRIA     CLOUDY    69  57  65 E16G28    29.81F
ELBOW LAKE     LGT RAIN  64  58  80 E16G25    29.76F
WADENA         CLOUDY    66  55  68 E15       29.82F
GLENWOOD       CLOUDY    72  57  60 E21G29    29.80F
APPLETON       RAIN      66  63  88 SE14G20   29.75F
BENSON         CLOUDY    68  59  73 S21G29    29.77F
ORTONVILLE     CLOUDY    68  63  83 SE21G29   29.73F
MADISON        PTSUNNY   72  61  68 S29G35    29.73F
WILLMAR        LGT RAIN  66  64  94 S15       29.82R
$$
MNZ033>034-036-042>043-049>051-058-059-062200-
   Central Minnesota

CITY           SKY/WX    TMP DP  RH WIND       PRES   REMARKS
ST CLOUD       PTSUNNY   74  56  53 E14G30    29.84F
SAUK CENTRE    CLOUDY    71  56  60 E18G28    29.82F
PAYNESVILLE    CLOUDY    70  56  59 E24G33    29.81F
AITKIN         CLOUDY    72  55  56 E10G17    29.90F
PINE RIVER     CLOUDY    70  57  64 E15       29.92F
BRAINERD       CLOUDY    67  55  65 E9G18     29.89F
STAPLES        CLOUDY    70  55  60 E10G17    29.84F
LONG PRAIRIE   PTSUNNY   70  55  60 E14G23    29.83F
LITTLE FALLS   CLOUDY    72  54  53 E17G26    29.85F
LITCHFIELD     CLOUDY    75  59  57 SE21G31   29.82F
BUFFALO        PTSUNNY   73  55  53 E17G28    29.87F
MAPLE LAKE     PTSUNNY   74  59  59 E12G21    29.86F
$$
MNZ037-044-045-052-053-062200-
   East Central Minnesota

CITY           SKY/WX    TMP DP  RH WIND       PRES   REMARKS
PRINCETON      PTSUNNY   73  57  56 E9G23     29.88F
MORA           CLOUDY    70  54  56 SE12      29.93F
CAMBRIDGE      CLOUDY    75  59  57 E12G22    29.88F
RUSH CITY      CLOUDY    74  57  55 SE13      29.92F
MOOSE LAKE     CLOUDY    64  50  59 E9        29.94F
HINCKLEY       FAIR      73  57  56 E14       29.94F
CLOQUET        CLOUDY    57  48  72 E12G18    30.00F
MCGREGOR       CLOUDY    70  52  52 E14       29.94F
$$
MNZ071>073-080-081-089-090-097-098-062200-
   Southwest Minnesota

CITY           SKY/WX    TMP DP  RH WIND       PRES   REMARKS
MONTEVIDEO     CLOUDY    70  64  83 S20G28    29.76F
GRANITE FALLS  CLOUDY    71  63  76 SE21G31   29.78F
CANBY          CLOUDY    70  60  71 S18G25    29.75F
MARSHALL       PTSUNNY   72  57  60 S24G33    29.75F
REDWOOD FALLS  CLOUDY    73  65  75 S25G33    29.79S
OLIVIA         CLOUDY    68  63  83 SE20G26   29.80F
PIPESTONE      PTSUNNY   70  57  64 S26G35    29.75F
WORTHINGTON    CLOUDY    72  57  60 S22G32    29.79F
JACKSON        MOSUNNY   73  55  53 S22G31    29.83F
TRACY          MOSUNNY   73  59  62 S18G32    29.77F
SLAYTON        PTSUNNY   71  60  68 S23G31    29.78F
$$
MNZ065>067-074>077-082>085-091>093-062200-
   South Central Minnesota

CITY           SKY/WX    TMP DP  RH WIND       PRES   REMARKS
MANKATO        CLOUDY    72  61  68 S26G38    29.85S
NEW ULM        CLOUDY    70  66  88 SE14G21   29.83F
ST JAMES       PTSUNNY   73  63  68 S20G26    29.83F
FAIRMONT       PTSUNNY   73  43  33 S24G32    29.83S
GLENCOE        CLOUDY    77  59  52 SE21G32   29.82F
FARIBAULT      PTSUNNY   73  57  56 SE18G30   29.89S
OWATONNA       PTSUNNY   73  59  60 SE20G32   29.89F
WASECA         RAIN      72  59  64 SE21G29   29.89S
ALBERT LEA     CLOUDY    70  63  78 SE17G26   29.90R
$$
MNZ078>079-086>088-094>096-062200-
   Southeast Minnesota

CITY           SKY/WX    TMP DP  RH WIND       PRES   REMARKS
ROCHESTER      CLOUDY    71  60  68 SE16G29   29.94F
RED WING       PTSUNNY   75  57  53 SE17G23   29.91F
STANTON        MOSUNNY   76  56  48 SE15G24   29.89F
DODGE CENTER   PTSUNNY   73  59  60 SE28G33   29.92F
WINONA         CLOUDY    73  59  60 SE14      29.97F
AUSTIN         HVY RAIN  66  61  82 SE15G36   29.93R
PRESTON        PTSUNNY   73  58  59 SE17G23   29.95F
$$
ABBREVIATIONS USED IN REMARKS
   TC - TEMPERATURES IN CELSIUS
  WCI - WIND CHILL INDEX
   HX - HEAT INDEX
  VSB - VISIBILITY
$$



USA.gov is the U.S. government's official web portal to all federal, state and local government web resources and services.